Current weather by "City, St" or "zip code"  
 
Advertise Here

Current Conditions: Luke Air Force Base / Phoenix, AZ

Fair


91.0 F

Last Updated on Jul 26 2021, 8:56 pm MST
Humidity: 44%
Wind Speed: W 3.5 mph
Barometer 29.89 in
Dewpoint: 65.8 F
Visibility: 10.00 mi
Precip: --
Heat Index: 94 F
Wind Chill: NA
Current conditions at:

Luke Air Force Base / Phoenix, AZ (KLUF)

Lat: 33.53333 Lon: 112.38333

Local Radar Image active severe weather and emergency alerts image image weather storm and storm spotter reports image weather observation monitoring service image
Local
Radar
Active
Alerts
Storm Reports Obs
Monitoring

Sign-up For Email & Text Message Weather Alert Notification Services


Advertise Here

Observation History for Luke Air Force Base / Phoenix, AZ


Time Wind
(mph)
Vis
(mi)
Weather Precip (in) Temperature (F) Relative
Humidity
Wind
Chill
(F)
Heat
Index
(F)
Pressure
Air Dwpt altimeter
(in)
sea level
(mb)
Rmks
8:56 pm MST W 3.5 10.00 Fair -- 91.0 65.8 44% NA 94 29.89 1010.8
7:56 pm MST N 0.0 10.00 Fair -- 93.0 61.3 35% NA 93 29.87 1010.1
6:56 pm MST W 4.6 10.00 Fair -- 94.0 60.8 33% NA 94 29.86 1009.8
5:56 pm MST W 5.8 10.00 Fair -- 95.0 61.5 33% NA 96 29.85 1009.4
4:56 pm MST W 6.9 10.00 Fair -- 96.0 61.7 33% NA 97 29.86 1009.8
3:56 pm MST S 6.9 10.00 Fair -- 95.0 62.2 34% NA 96 29.88 1010.5
2:56 pm MST N 0.0 10.00 A Few Clouds -- 94.0 62.2 35% NA 95 29.90 1011.1
1:56 pm MST N 0.0 10.00 Partly Cloudy -- 93.0 63.9 38% NA 94 29.93 1012.2
12:56 pm MST E 5.8 10.00 Partly Cloudy -- 92.0 66.7 44% NA 95 29.95 1012.9
11:56 am MST NE 5.8 10.00 A Few Clouds -- 89.0 67.6 49% NA 92 29.96 1013.3
10:56 am MST NE 4.6 10.00 Fair -- 88.0 69.4 55% NA 93 29.98 1014.0
9:56 am MST NE 3.5 10.00 Partly Cloudy Trace 84.0 68.5 60% NA 87 29.98 1014.1
8:56 am MST N 0.0 10.00 Fair Trace 83.0 68.5 62% NA 86 29.98 1014.1
7:56 am MST NE 5.8 10.00 Partly Cloudy -- 80.0 68.9 68% NA 83 29.98 1014.1
6:56 am MST N 4.6 10.00 Fair -- 78.0 70.0 77% NA NA 29.97 1013.7
5:56 am MST N 4.6 10.00 Fair -- 75.0 74.8 99% NA NA 29.96 1013.4
4:56 am MST N 3.5 10.00 Fair -- 75.0 74.5 99% NA NA 29.95 1013.1
3:56 am MST 10.00 Fair -- 76.0 73.6 94% NA NA 29.95 1013.2
2:56 am MST N 0.0 10.00 Fair -- 76.0 73.0 90% NA NA 29.94 1012.8
1:56 am MST N 0.0 10.00 A Few Clouds -- 76.0 72.5 88% NA NA 29.93 1012.5
12:56 am MST N 4.6 10.00 Mostly Cloudy -- 77.0 72.9 87% NA NA 29.94 1012.9
11:56 pm MST N 5.8 10.00 Mostly Cloudy -- 77.0 72.1 84% NA NA 29.95 1013.2
10:56 pm MST N 3.5 10.00 Fair -- 78.0 73.2 86% NA NA 29.95 1013.2
9:56 pm MST NE 6.9 10.00 A Few Clouds -- 78.0 73.2 84% NA NA 29.96 1013.6

Regional Weather Observation


Glendale, Glendale Municipal Airport, AZ (KGEU)

A Few Clouds
93.0 F

Buckeye Municipal Airport, AZ (KBXK)

NULL
88.0 F

Phoenix, Phoenix-Deer Valley Municipal Airport, AZ (KDVT)

Fair
89.0 F

Goodyear Municipal, AZ (KGYR)

A Few Clouds
91.0 F

Phoenix, Phoenix Sky Harbor International Airport, AZ (KPHX)

Partly Cloudy
91.0 F

Scottsdale Airport, AZ (KSDL)

Fair
90.0 F
Advertise Here

Advertise Here